Location: Plzen
(49.7500°N, 13.3670°E)
Time: 04:05:54
(UTC+02:00)

ISS - Pass Details

Date: 18 May 2021
Orbit: 417 x 422 km, 51.6° (Epoch: 13 June)

Event Time Altitude Azimuth Distance (km) Brightness Sun altitude
Rises 22:52:42 0° 262° (W) 2,362 0.4 -14.7°
Reaches altitude 10° 22:54:49 10° 264° (W) 1,500 -0.6 -14.9°
Maximum altitude 22:58:10 70° 349° (N) 451 -3.5 -15.2°
Drops below altitude 10° 23:01:33 10° 74° (ENE) 1,506 -1.1 -15.5°
Enters shadow 23:03:21 - 77° (ENE) 2,248 -0.2 -15.6°
